Wind_Speed
2 0 1 4 6 7 7 6 6 4 4 3 3 4 1 1 3 5 5 6 1 3 3 4 5 3 4 8 8 4 5 15 19 18 19 22 23 26 30 34 37 40 40 38 36 34 32 30 28 26 24 21 19 19 17 16 14 13 12 12 12 14 14 14 13 12 12 11 9 9 8 6 5 4 3 2 1 3 4 4 5 6 8 9 10 10
2 0 5 8 9 8 6 5 4 4 4 3 3 2 2 0 3 5 4 6 3 4 3 4 1 3 5 6 7 6 2 7 15 18 21 25 27 29 33 34 35 35 35 36 37 35 34 33 31 29 27 24 22 22 20 17 15 15 14 12 13 14 14 14 12 12 11 10 9 9 8 7 6 5 5 5 3 1 1 2 2 1 3 6 8 9
4 4 10 9 6 3 1 2 4 5 5 3 2 2 2 2 3 6 5 6 4 3 3 3 2 4 7 6 7 7 4 5 12 20 26 28 27 28 31 32 30 29 31 36 39 38 37 36 34 32 30 27 24 23 22 19 18 17 15 14 14 13 14 14 13 11 10 9 9 8 8 7 7 6 7 7 6 5 5 5 6 5 4 3 4 6
2 7 8 3 5 5 1 2 5 3 3 3 3 3 2 3 0 3 5 6 4 2 1 1 3 5 6 5 6 7 6 7 5 13 23 30 31 31 33 33 32 33 34 37 41 41 40 38 37 35 33 29 27 26 24 22 21 19 17 16 15 14 14 14 13 12 10 10 9 7 6 6 5 6 6 7 7 7 7 7 7 7 6 5 5 4
6 9 4 3 5 6 3 1 4 4 2 2 3 5 3 3 3 4 4 5 5 4 2 4 5 5 5 5 6 5 5 7 7 5 12 22 30 35 35 33 34 36 38 41 43 43 41 40 40 38 35 32 30 29 28 26 23 21 18 18 16 15 14 14 14 14 13 12 10 8 7 6 6 6 6 5 6 7 7 7 7 7 7 7 6 3
8 8 2 1 3 5 5 4 4 6 3 4 3 6 7 5 4 3 3 5 4 5 3 3 2 5 5 4 6 5 5 5 6 6 10 15 19 27 32 33 34 35 38 42 43 44 42 41 42 40 38 35 33 33 31 28 24 21 20 19 18 16 15 14 14 15 14 12 11 8 7 6 5 6 7 5 5 5 6 7 7 7 7 7 8 6
5 5 2 2 4 4 5 5 4 6 4 2 5 7 7 5 4 3 1 4 2 3 4 2 3 4 5 4 6 5 6 8 8 6 11 18 17 19 28 35 36 37 40 41 42 43 42 42 43 42 40 39 37 35 33 29 25 23 22 21 20 18 16 15 15 17 16 14 11 8 6 5 4 5 6 4 4 4 4 5 6 5 5 6 7 8
3 6 6 3 1 3 4 5 5 7 7 3 5 6 7 5 5 5 5 4 2 3 4 5 4 2 4 5 6 5 6 8 9 8 10 17 22 19 24 32 37 40 43 43 44 44 43 44 45 43 41 40 39 36 34 32 28 25 24 23 21 20 17 16 17 18 17 15 12 10 7 7 6 6 6 5 3 3 2 3 4 4 4 5 6 6
1 3 4 0 3 2 5 6 7 8 4 6 6 6 5 4 5 5 6 4 1 1 3 6 2 1 4 6 5 5 4 7 8 10 9 15 23 21 20 28 35 40 44 45 46 46 45 45 45 43 41 40 39 37 35 34 31 27 25 25 23 22 20 18 18 19 19 16 13 11 9 8 7 7 8 6 4 3 3 2 2 3 2 3 4 5
3 5 5 4 4 3 6 5 8 10 4 4 5 5 3 4 5 4 5 4 2 2 4 6 1 2 3 6 5 3 3 6 7 8 9 15 22 21 17 21 32 38 42 46 47 45 44 44 44 43 42 40 39 38 37 35 32 28 27 27 26 24 22 20 19 21 20 18 15 13 12 10 9 9 9 8 5 4 4 3 2 2 2 1 2 3
5 4 3 4 5 6 6 4 5 8 5 3 5 4 5 5 4 3 2 4 2 1 6 7 5 4 2 5 4 3 4 3 4 7 9 14 21 23 20 15 26 37 40 44 46 46 44 43 44 44 42 41 40 39 38 36 34 30 29 29 28 26 24 22 22 22 22 20 19 16 14 12 11 10 10 8 7 6 5 4 4 4 3 2 1 1
7 3 2 3 5 4 3 1 1 1 2 5 4 4 2 3 4 4 4 3 1 4 6 6 4 5 2 5 5 5 5 3 4 7 9 12 18 24 23 11 18 33 39 43 45 46 45 44 44 44 42 41 40 39 39 38 37 34 32 31 30 28 26 24 24 24 24 23 22 19 17 14 12 11 10 8 7 6 5 5 6 6 5 4 3 2
4 4 3 4 4 4 4 0 3 5 5 5 4 5 3 2 3 2 3 1 3 5 5 4 2 2 4 6 5 6 7 7 6 7 7 7 17 26 25 11 8 20 29 38 43 45 45 44 44 43 42 41 39 39 39 39 39 37 35 33 32 30 27 26 25 26 26 25 24 22 19 17 15 13 11 10 8 8 7 7 8 8 6 5 4 3
3 5 5 4 3 2 5 3 2 3 1 3 4 4 3 2 1 2 3 2 3 5 4 3 2 2 3 3 5 6 7 7 6 4 6 16 23 29 31 23 7 7 16 25 34 39 42 43 42 42 41 40 39 37 38 39 40 39 38 36 34 31 28 27 26 26 27 26 25 23 21 19 17 15 13 12 10 9 9 9 10 9 8 7 6 5
0 4 3 1 2 1 3 5 5 4 3 3 3 5 4 4 3 4 3 3 4 4 4 3 1 2 1 1 6 7 4 7 9 10 18 25 28 32 36 35 25 9 4 13 21 29 36 39 39 38 37 37 37 36 37 39 40 41 40 38 36 33 30 28 27 27 27 26 25 24 22 21 19 16 14 13 11 11 11 11 10 10 10 9 8 8
1 5 6 3 2 1 2 2 5 6 2 3 2 5 2 4 5 2 2 4 3 1 2 2 2 3 2 3 7 5 2 7 13 19 25 25 29 36 35 34 34 27 13 2 13 22 31 35 36 36 36 35 35 36 37 39 39 41 41 40 38 35 31 29 28 27 26 26 25 24 23 22 20 18 16 14 13 12 12 12 11 11 11 10 10 10
1 4 6 4 3 2 2 1 1 2 1 1 1 2 4 3 6 3 1 0 3 1 3 1 2 4 1 1 6 4 4 7 11 16 20 21 27 34 31 30 33 33 28 17 3 12 23 31 34 36 36 35 36 37 38 37 37 38 40 40 39 36 33 31 29 28 26 26 26 25 24 23 21 19 17 15 14 13 13 13 13 12 12 12 12 11
3 3 6 0 1 3 2 5 5 4 3 4 1 4 3 1 3 3 0 3 4 0 4 1 2 4 1 1 6 6 7 7 7 8 13 18 25 26 25 28 30 30 30 28 21 11 1 14 26 33 36 36 36 37 38 37 37 38 39 40 38 37 34 32 30 28 27 26 27 26 25 24 22 20 18 16 14 13 14 14 14 14 14 13 13 12
3 2 7 1 2 5 4 5 2 7 5 5 3 2 1 1 1 1 1 0 0 2 3 3 2 3 3 4 3 0 3 3 5 7 9 12 17 19 22 26 28 28 27 26 27 25 19 10 8 21 32 36 36 36 37 37 39 40 41 41 40 37 34 31 30 29 28 27 27 26 26 25 23 20 19 17 16 16 15 15 15 15 14 14 14 13
2 1 6 4 1 3 5 2 2 4 5 3 2 3 2 3 3 0 1 2 2 3 2 3 3 2 5 6 6 7 6 4 4 6 7 7 11 15 19 22 24 26 25 24 24 24 23 22 15 7 16 28 34 36 36 36 39 41 42 42 41 39 36 33 31 30 29 28 27 27 27 26 24 22 20 19 18 18 17 16 16 16 15 15 15 14
2 2 4 6 4 2 2 0 4 3 1 2 3 3 3 1 1 0 0 2 2 3 3 2 3 4 5 4 7 8 6 5 5 5 5 6 11 14 16 19 21 23 23 23 22 21 21 21 19 16 9 11 21 30 34 36 38 39 40 42 42 41 39 36 34 32 30 29 29 28 27 27 26 23 22 22 21 20 19 17 17 17 17 17 16 15
1 1 3 3 4 2 4 4 4 5 5 4 2 1 1 1 0 1 2 2 1 2 3 4 2 6 5 2 3 6 6 5 5 6 5 6 12 14 15 18 19 21 21 21 21 20 18 17 17 16 15 12 9 15 24 31 35 36 36 38 40 42 42 39 36 33 31 30 30 29 28 28 27 25 25 24 24 23 21 20 18 18 18 18 18 17
2 3 2 2 4 4 7 7 4 4 3 5 2 2 3 2 3 3 3 3 1 1 1 4 1 5 5 3 1 4 5 5 4 6 6 8 12 14 16 17 18 19 19 18 18 17 15 13 13 13 13 13 11 9 13 20 26 30 33 35 38 42 42 41 38 35 33 32 32 31 29 29 28 28 28 27 27 26 24 22 20 19 19 19 19 18
2 2 2 2 4 4 7 5 2 1 3 6 1 1 4 4 4 4 4 2 2 2 1 2 2 5 5 4 2 1 2 2 1 3 7 8 10 13 14 14 15 16 16 16 15 14 12 11 10 10 11 11 11 10 10 12 16 22 28 32 37 41 41 40 39 37 36 36 34 32 32 31 30 31 31 31 30 28 26 24 21 21 20 20 20 19
2 0 2 2 4 5 7 6 4 4 2 3 0 2 3 3 4 2 1 3 1 3 3 4 4 5 4 4 4 3 3 4 3 3 6 7 9 10 11 12 12 13 13 14 13 11 11 10 10 10 10 10 10 11 11 10 11 16 22 27 32 36 38 40 41 40 38 39 37 36 35 33 32 33 34 34 33 30 28 25 23 22 21 21 21 20
1 1 2 2 2 3 2 3 3 3 1 0 1 2 2 2 3 1 1 3 1 3 2 4 3 4 4 5 6 5 4 5 4 0 4 7 8 8 9 10 10 11 12 11 11 10 9 10 11 11 12 11 9 9 10 11 11 10 15 22 28 32 34 37 41 42 41 41 41 39 37 36 35 36 36 36 35 33 30 27 25 23 22 21 21 21
2 1 1 5 5 5 5 6 5 2 1 3 2 3 2 1 1 3 2 2 3 2 2 4 5 4 7 5 5 6 5 4 4 3 4 6 8 8 9 9 11 12 12 11 10 10 9 10 11 13 14 14 13 11 10 10 10 10 10 13 19 27 32 36 40 42 43 44 44 42 39 37 37 37 38 38 38 36 32 29 26 24 23 21 20 21
4 3 2 5 5 6 7 7 5 1 3 5 3 3 5 4 3 5 3 4 4 2 5 6 5 4 7 6 5 6 5 5 4 4 4 6 8 8 8 10 11 11 11 11 11 12 12 12 13 14 14 14 14 14 13 12 12 11 11 11 11 15 22 29 36 40 42 43 44 44 42 40 39 40 40 40 39 38 35 31 27 25 22 20 20 20
4 2 3 2 4 6 5 6 5 3 3 5 4 5 6 6 5 6 7 7 6 5 8 7 6 6 7 6 6 6 5 5 5 5 5 6 8 9 10 11 11 10 11 11 12 12 12 12 13 13 14 14 14 14 14 14 14 14 14 14 13 12 13 17 24 32 39 42 43 44 43 42 41 42 43 43 43 42 38 32 28 24 22 21 20 19
3 2 3 1 3 6 5 5 4 3 4 3 4 5 5 6 8 8 7 6 8 8 9 6 6 8 6 6 8 9 8 4 2 5 7 8 9 10 11 11 10 10 10 11 11 12 12 12 13 13 14 15 16 16 16 16 16 15 15 15 15 15 15 15 17 22 28 35 40 43 44 45 43 43 45 47 45 40 36 31 26 23 21 20 18 17
2 2 2 2 3 6 6 5 4 2 3 4 5 4 5 6 7 6 5 4 5 7 8 5 6 8 6 6 8 7 5 2 5 7 7 8 8 9 10 10 9 9 10 10 11 12 13 14 15 17 18 18 19 19 19 20 20 19 19 17 16 16 17 18 19 20 21 25 29 34 39 44 45 44 44 43 38 32 28 26 23 22 20 18 16 16
2 1 2 4 3 6 4 5 7 5 3 5 6 5 6 7 6 5 4 5 6 6 5 3 4 6 5 4 3 3 6 6 4 5 5 6 7 8 7 7 8 9 11 13 14 14 15 16 18 19 21 21 22 23 23 24 24 24 24 24 22 20 21 22 23 24 24 24 24 26 29 35 40 43 42 38 34 30 28 26 23 21 19 16 15 15
2 1 1 1 2 6 4 5 5 4 5 8 7 7 10 9 7 5 3 5 7 6 5 4 6 6 3 3 2 2 4 3 2 3 4 6 6 5 5 7 9 12 14 16 17 18 19 20 21 22 23 24 25 26 27 27 28 28 28 28 28 27 26 26 26 27 27 27 26 26 27 30 35 40 40 34 31 32 30 27 24 20 17 16 15 14
4 4 3 3 3 6 4 2 3 3 6 8 5 7 10 9 8 7 5 6 7 4 3 4 4 4 3 5 5 4 2 2 3 4 5 5 3 4 6 9 13 15 17 18 20 21 22 23 24 25 26 27 28 29 30 30 31 31 32 32 33 33 32 30 29 28 29 29 28 27 29 31 33 38 36 30 28 30 30 26 22 19 17 16 14 14
3 4 3 2 3 4 1 3 1 7 7 4 3 3 6 6 7 7 5 6 5 4 4 4 4 4 5 5 6 5 2 2 4 5 3 2 0 5 9 12 15 18 19 20 21 22 23 24 25 26 27 29 30 31 32 33 33 33 35 35 35 36 36 34 32 30 29 30 29 29 30 33 35 37 34 30 30 31 28 25 22 21 18 16 15 14
4 3 2 1 2 2 1 3 5 5 4 5 6 4 2 1 2 1 5 6 3 4 4 4 4 4 5 6 6 4 3 4 5 5 5 4 3 8 12 15 18 20 20 21 21 22 23 24 25 26 28 30 31 32 33 33 34 35 36 36 36 37 37 36 35 33 31 30 30 29 30 35 38 39 37 35 34 32 29 26 23 21 18 16 15 15
5 3 2 2 3 2 2 3 3 4 7 6 4 3 1 1 2 2 3 5 5 3 3 4 3 4 5 6 6 5 5 4 3 4 7 7 9 13 15 17 20 21 22 22 23 23 24 24 25 26 28 31 32 33 34 34 35 36 37 38 37 37 37 37 36 35 33 31 30 29 29 34 39 41 39 38 35 32 30 26 22 19 17 16 15 14
4 5 4 3 2 2 2 3 3 4 5 5 3 4 2 3 6 6 4 2 5 3 1 4 4 5 7 7 7 4 2 0 3 5 7 10 14 17 19 21 22 22 23 24 24 25 25 26 27 29 31 33 34 34 34 35 36 37 38 38 38 37 36 36 36 34 32 32 31 29 28 32 38 40 39 38 36 32 27 24 20 18 16 14 14 14
2 1 4 4 1 1 3 4 3 3 5 5 5 6 7 8 7 3 3 1 4 5 4 4 6 6 7 8 6 2 2 3 4 8 14 18 19 20 22 24 24 24 24 25 25 27 28 28 30 32 33 35 35 34 33 34 34 34 35 36 36 35 36 36 35 32 31 32 31 29 29 33 37 40 40 38 36 31 27 24 20 17 15 14 14 14
5 4 3 3 3 2 3 3 3 3 3 4 5 6 10 11 6 3 2 3 6 9 11 9 9 8 7 8 6 1 1 4 7 12 19 21 22 23 23 24 25 25 26 26 26 27 28 29 32 34 35 35 34 32 30 29 29 30 32 33 33 35 37 36 32 29 29 30 29 28 31 33 36 39 39 37 33 29 25 21 17 15 14 14 13 12
3 3 1 2 3 3 3 3 3 2 3 4 5 7 11 9 5 4 3 5 8 13 15 11 11 11 10 11 9 6 9 13 16 20 22 22 24 25 24 24 25 26 26 27 27 28 29 32 34 36 35 34 31 29 26 25 26 28 30 32 34 36 36 32 29 29 29 27 26 28 32 34 36 38 35 31 28 23 19 16 14 13 13 12 11 10
2 2 2 0 0 1 2 2 2 3 2 3 5 7 8 4 1 2 5 9 11 13 13 11 12 13 13 14 15 14 18 21 23 25 25 23 24 26 25 25 26 27 28 27 27 28 31 35 36 35 34 31 28 26 24 23 26 28 29 33 37 36 32 28 28 29 28 25 25 29 32 34 35 33 28 25 22 19 16 14 13 12 11 9 8 7
1 1 3 2 1 0 1 1 1 2 2 3 3 4 4 1 3 8 11 12 13 13 13 13 14 14 15 17 18 19 22 23 25 27 27 26 25 26 26 25 26 28 29 28 29 31 33 36 36 34 31 29 26 24 23 24 27 29 31 35 38 35 30 27 28 27 24 24 27 30 33 33 30 27 25 22 19 16 14 11 9 7 6 4 2 2
1 1 1 2 1 1 1 1 2 3 3 2 1 1 4 8 12 11 9 10 13 15 15 16 17 18 19 20 21 21 23 25 26 27 28 28 28 28 27 26 26 28 29 29 31 33 34 34 33 31 30 27 24 23 23 24 27 31 34 36 35 32 28 27 27 25 24 27 30 31 31 31 28 25 23 20 18 16 14 11 10 7 5 3 3 3
1 2 3 3 3 2 4 6 6 6 5 3 2 7 13 15 13 9 9 12 15 15 15 17 19 20 20 22 23 23 24 26 27 27 29 31 31 29 28 28 27 27 28 30 32 34 33 31 29 29 28 26 22 21 22 24 27 31 34 34 31 27 25 24 24 25 28 32 34 32 32 32 29 24 20 18 17 16 15 14 11 9 7 6 5 5
4 3 1 2 3 4 5 8 9 9 8 7 11 16 17 14 12 11 13 17 17 16 17 18 20 21 21 22 24 25 25 26 27 29 30 31 31 30 29 28 28 27 27 30 32 33 31 28 27 27 28 23 19 19 21 24 26 26 26 25 21 18 19 24 29 33 35 36 35 33 32 30 26 22 20 18 16 15 14 12 9 9 9 8 7 6
4 2 0 2 3 4 4 4 6 10 14 17 21 21 16 13 15 17 19 21 20 20 20 20 21 22 22 23 25 27 27 27 28 30 30 29 29 28 27 27 27 27 27 30 32 31 28 26 25 26 25 20 16 18 21 22 20 16 11 9 10 19 28 33 37 38 38 38 37 33 28 25 23 22 19 17 15 13 11 8 8 9 9 9 8 6
3 2 2 3 4 4 5 8 14 21 24 23 20 17 14 14 17 18 19 20 20 20 21 22 23 24 25 25 26 27 29 29 29 29 29 27 27 27 27 28 27 27 28 31 31 28 25 22 22 23 21 16 15 17 15 12 10 7 10 16 21 28 33 35 37 37 37 37 34 29 26 23 20 18 17 15 13 11 8 7 8 9 9 8 7 6
7 3 3 3 4 5 6 10 15 17 18 17 16 16 17 18 19 19 19 19 20 22 24 25 26 26 27 27 26 26 28 28 27 26 27 27 27 27 27 28 28 28 30 31 30 26 22 20 21 21 17 15 14 11 8 9 7 11 20 26 29 32 35 35 35 34 33 31 30 27 25 22 19 17 16 14 12 9 8 7 9 10 8 7 5 5
5 4 4 3 4 5 6 10 11 7 7 15 22 23 22 22 22 23 23 24 25 27 27 27 27 27 26 25 23 23 26 28 28 28 28 28 28 28 28 28 29 30 32 31 28 23 20 19 19 17 15 14 11 8 12 13 14 20 24 26 28 30 31 31 31 29 29 28 27 25 23 21 19 16 14 12 11 9 9 9 10 10 9 8 8 9
7 7 6 4 4 8 13 21 21 12 11 21 29 28 26 27 27 27 28 28 28 29 26 25 25 26 26 25 24 23 26 29 30 29 28 27 27 27 27 27 28 30 31 28 24 21 20 18 16 14 14 12 9 11 14 14 19 24 25 27 29 29 29 28 28 28 28 26 24 22 21 20 19 16 13 12 11 10 10 11 12 11 11 11 11 10
Wind_Direction
86 129 277 226 234 240 234 204 188 185 167 161 120 124 125 96 297 286 272 297 21 108 307 251 232 308 294 275 293 305 190 191 201 206 209 207 201 197 196 197 197 198 200 198 196 201 206 209 211 212 211 209 206 203 202 199 203 209 204 197 188 187 192 194 189 181 175 165 159 164 161 159 166 161 143 133 227 285 295 296 293 285 277 269 262 260
50 268 250 229 226 226 228 208 169 122 105 107 116 95 353 81 267 273 260 307 349 110 300 287 203 285 277 268 283 308 2 165 184 195 204 205 204 203 202 203 202 201 200 197 197 201 206 209 211 212 212 211 209 206 205 203 204 207 205 197 190 187 186 187 184 178 170 145 131 144 146 145 149 143 125 115 113 87 37 38 34 338 288 274 265 263
1 273 254 240 209 168 118 130 129 108 97 81 100 89 340 265 282 299 291 314 358 92 291 319 49 282 273 274 282 287 272 214 189 194 204 206 205 207 208 207 203 200 200 198 199 203 206 209 211 213 214 214 214 212 208 205 206 207 201 195 195 191 185 182 182 179 166 135 125 137 144 149 151 139 125 115 106 93 79 69 63 53 35 341 287 268
311 251 247 216 135 132 91 94 111 101 90 88 113 117 281 265 267 292 295 320 349 46 246 53 32 305 300 309 289 284 279 278 244 203 206 208 210 213 212 211 205 200 200 199 200 204 206 208 211 213 214 214 215 216 212 206 207 206 201 199 198 192 187 183 181 178 163 142 140 151 161 166 162 150 135 118 107 96 86 76 66 55 42 18 344 303
250 255 252 100 126 155 185 185 146 162 234 292 167 155 204 237 210 220 274 327 342 357 44 73 22 321 324 338 297 313 334 302 297 268 219 213 217 218 215 213 209 204 202 201 202 204 206 210 213 214 215 215 216 219 217 210 207 206 204 203 198 193 190 186 183 179 169 158 159 173 186 191 183 174 164 133 111 98 92 85 71 59 47 31 23 8
258 269 284 237 222 166 173 222 203 175 201 305 245 195 197 208 211 231 327 17 26 345 338 51 16 290 317 325 272 297 348 307 302 305 265 247 230 218 215 214 211 208 206 205 206 206 209 213 214 214 214 216 218 221 219 213 209 208 207 204 198 196 194 191 188 184 179 172 167 176 193 204 198 183 181 162 123 106 95 91 81 66 52 38 42 51
259 288 4 220 233 173 173 231 227 163 135 311 246 203 184 158 142 162 125 81 103 258 296 52 150 250 318 314 268 302 333 301 303 305 276 274 263 227 218 215 210 208 207 207 208 209 212 215 215 214 216 218 219 220 219 214 211 209 208 206 201 199 198 196 196 190 187 183 174 180 202 219 223 195 192 187 141 122 104 95 94 81 60 46 47 57
272 324 357 31 120 146 173 230 220 151 125 233 235 167 147 144 157 167 146 142 199 234 313 15 112 191 301 278 278 332 335 304 300 295 280 276 275 257 230 220 212 208 207 206 208 211 215 217 217 218 219 220 219 219 218 215 212 209 208 207 205 203 201 201 202 197 194 190 183 184 203 221 223 208 209 214 178 148 140 113 105 99 74 57 55 63
273 307 301 3 95 144 201 216 187 146 141 241 212 147 149 164 163 146 129 157 256 73 302 322 59 167 275 277 305 353 318 289 285 284 283 280 283 280 251 227 215 210 209 208 209 212 216 218 221 223 222 221 219 219 219 217 213 210 208 209 207 206 204 204 206 204 199 197 193 191 204 219 219 214 220 225 212 189 191 184 138 124 99 66 65 74
243 231 228 161 139 210 229 220 169 158 191 231 160 116 67 63 92 98 115 141 52 70 240 266 211 174 271 284 311 351 271 262 270 276 275 282 294 303 288 243 217 210 209 210 212 215 218 220 222 224 222 220 219 218 218 218 215 211 209 210 210 210 208 207 209 208 204 201 199 200 206 217 220 217 222 228 225 222 223 225 220 189 163 120 86 86
284 267 215 164 192 210 209 204 167 173 184 136 105 72 34 25 42 49 73 105 78 281 247 245 203 164 261 283 261 231 232 242 278 291 290 300 318 333 330 279 221 208 207 210 213 217 219 220 220 221 221 220 219 217 217 218 217 214 212 212 212 212 212 212 213 211 209 206 204 205 208 216 223 220 224 231 228 228 235 239 245 241 222 204 195 138
328 307 224 235 233 189 136 112 69 60 75 92 84 70 53 333 11 21 356 44 135 257 260 246 192 142 193 260 251 251 272 267 248 275 289 310 339 358 360 326 225 210 208 210 213 216 217 217 218 219 220 220 218 217 217 218 219 217 215 214 213 213 214 216 217 214 213 212 209 209 212 219 225 224 226 231 230 230 239 246 252 252 245 232 224 219
324 252 268 309 265 158 116 333 333 5 33 83 94 82 89 319 3 338 302 320 212 251 255 216 158 144 218 247 263 271 284 282 265 275 293 344 14 22 24 19 223 213 211 209 211 213 214 215 218 219 220 221 220 220 220 220 220 219 217 215 215 215 216 218 220 217 216 216 215 214 215 219 225 226 227 230 228 226 233 242 248 252 254 248 242 243
328 302 322 347 297 187 136 151 261 317 31 135 144 122 132 131 64 269 271 281 256 268 269 222 194 260 270 283 282 272 288 322 341 348 44 52 45 40 39 45 67 215 222 216 214 212 212 215 219 220 220 222 223 223 223 222 220 220 219 218 218 218 218 220 222 220 218 218 219 220 219 221 224 225 227 229 226 225 230 236 242 249 253 252 252 252
94 307 297 191 276 315 114 149 170 169 174 204 170 130 144 154 161 226 228 214 250 274 291 287 233 194 158 275 277 274 309 35 53 57 58 55 54 53 47 45 52 61 221 227 225 218 215 217 218 219 220 222 225 225 224 223 222 222 222 221 221 221 220 222 223 222 220 219 219 222 222 223 225 225 227 229 226 227 232 236 242 247 250 254 257 257
133 258 254 261 285 76 86 199 169 129 115 256 152 107 154 184 162 187 198 182 192 247 292 285 236 216 174 251 281 278 342 53 61 58 53 50 53 56 48 40 44 49 55 184 227 224 221 219 218 219 220 222 225 225 225 224 223 224 224 223 224 224 223 224 226 224 222 220 220 222 223 224 224 223 226 227 225 227 232 237 243 247 250 253 256 259
102 266 275 318 344 48 72 287 121 102 151 226 102 165 235 190 132 123 275 333 82 110 273 261 244 289 345 317 312 342 43 31 40 56 56 50 51 53 45 37 41 45 48 54 92 221 226 224 221 220 221 223 224 225 226 226 225 227 227 225 225 225 225 227 229 228 226 224 222 222 224 226 224 223 226 226 223 226 232 237 242 245 246 247 250 256
146 254 285 17 125 305 16 75 48 21 93 116 159 231 250 15 89 112 170 359 44 196 275 277 206 273 328 207 310 356 47 27 15 50 57 50 50 50 44 40 42 43 45 49 54 59 231 236 232 228 224 224 225 226 227 227 228 229 230 229 227 226 227 228 230 230 229 228 227 226 226 227 227 227 229 228 224 226 230 235 239 240 241 243 245 250
121 232 287 286 162 297 354 85 49 351 33 116 165 190 94 86 286 10 104 126 302 227 284 307 254 243 214 208 248 309 99 59 23 44 56 53 53 52 47 45 43 41 41 42 47 51 49 33 273 242 233 230 228 229 230 229 229 229 230 232 231 230 230 231 232 232 231 231 231 231 231 231 231 231 231 230 226 225 228 232 236 237 238 240 241 243
66 137 280 297 261 304 356 61 198 317 351 43 72 31 43 138 170 189 133 173 205 207 245 301 312 268 235 208 173 175 181 150 91 64 71 77 70 62 54 49 44 40 39 35 37 43 44 42 30 332 256 243 237 234 233 233 233 231 231 233 233 232 233 233 234 235 234 235 234 235 236 236 235 233 233 230 227 226 227 230 235 237 237 237 238 239
32 87 253 294 323 325 336 312 168 176 344 25 20 349 344 20 97 302 255 140 146 176 197 227 277 269 255 210 156 162 184 171 131 109 113 101 85 73 60 53 46 41 40 36 33 34 36 36 34 28 2 283 256 247 242 238 237 235 234 234 235 235 234 235 237 237 237 237 237 238 238 238 236 234 233 231 229 228 228 229 232 235 236 235 235 236
47 138 198 285 333 307 247 240 192 177 165 148 183 247 269 247 12 293 290 308 116 168 180 164 232 268 267 255 166 158 177 191 149 120 115 84 74 69 63 60 53 46 45 40 34 29 26 29 29 27 25 12 322 276 259 250 245 242 241 241 240 238 237 237 239 239 240 240 239 240 241 240 237 235 234 230 228 229 228 227 229 232 233 232 231 233
138 108 116 244 259 241 252 262 249 219 160 119 149 161 128 124 113 145 224 271 299 251 156 127 176 268 271 297 257 175 174 184 152 115 103 79 62 55 54 58 57 55 52 48 43 36 30 32 32 27 25 21 5 332 290 267 256 250 248 247 244 241 240 240 242 243 242 242 242 243 244 243 240 237 235 231 228 228 227 226 225 228 231 231 231 231
87 83 69 296 290 308 300 301 310 288 91 90 56 58 101 116 122 152 180 178 204 236 147 127 234 264 282 322 324 212 187 202 160 99 101 86 61 52 52 51 50 53 54 53 52 46 38 32 29 30 31 25 15 359 332 298 278 265 257 252 248 246 244 242 244 246 245 244 244 245 245 244 242 240 237 234 231 229 228 225 224 226 229 230 231 231
337 299 97 11 329 334 335 345 351 336 40 106 153 36 82 95 87 87 91 89 219 235 162 161 230 247 269 320 327 319 329 330 340 83 87 63 51 55 58 55 47 44 46 48 45 39 33 27 23 24 24 26 25 16 5 344 312 287 273 264 258 255 251 245 244 246 248 246 245 245 245 245 245 244 241 239 235 231 229 226 224 225 227 228 229 231
266 224 140 132 239 246 282 284 263 281 320 102 131 101 59 35 52 345 20 92 235 262 160 162 219 259 289 317 317 306 314 318 305 2 56 48 57 64 63 60 52 46 42 39 35 30 27 21 16 12 8 7 8 9 11 8 356 329 295 277 268 262 256 249 245 247 250 250 247 246 247 247 247 247 245 243 240 235 231 227 225 225 227 228 229 232
132 65 157 153 180 205 208 230 230 189 219 265 242 155 171 310 99 112 98 145 199 229 257 215 198 251 278 273 273 282 274 249 255 310 23 67 87 84 74 63 53 48 41 30 22 17 14 7 0 359 358 356 353 346 342 345 352 353 335 304 280 267 258 252 248 248 250 251 250 249 248 250 253 252 249 247 244 240 234 229 227 226 226 228 230 234
102 1 295 167 198 220 207 230 254 220 218 244 239 179 185 207 173 134 166 219 177 156 273 250 187 213 249 232 242 281 277 251 283 353 38 91 91 77 68 54 43 37 27 18 12 6 2 356 349 345 343 344 344 339 331 325 323 325 328 327 313 289 272 262 255 252 252 252 252 251 250 251 255 255 252 249 246 242 236 231 228 226 226 227 230 234
118 292 275 212 268 263 229 238 253 247 231 228 223 207 196 204 201 189 210 210 162 177 248 237 189 213 235 221 234 263 274 286 323 14 58 77 62 47 40 35 26 18 11 9 7 2 357 351 342 335 330 329 328 325 324 322 319 315 311 309 311 313 308 292 273 262 257 253 251 250 250 251 253 252 251 249 246 240 234 230 228 225 223 224 226 230
116 267 273 252 303 301 280 263 253 242 246 252 248 230 202 198 208 215 226 208 184 212 239 229 222 243 241 212 234 271 292 295 6 56 59 50 36 26 21 18 13 11 8 4 359 353 347 344 338 331 325 321 317 316 316 316 316 313 309 306 301 301 306 308 297 281 268 259 255 253 252 253 253 252 250 246 239 232 228 226 226 224 220 220 223 227
57 285 291 48 359 300 295 307 310 275 238 251 264 243 202 203 221 235 242 208 196 239 257 257 261 269 260 221 235 283 323 82 82 47 36 33 23 13 8 5 5 5 1 353 347 340 333 329 326 323 320 317 316 315 314 313 312 308 305 303 298 295 296 295 294 293 287 278 270 264 259 258 258 257 252 244 234 226 224 225 225 223 220 218 221 224
46 298 336 45 336 277 288 309 300 321 322 269 247 217 202 207 217 223 222 197 187 212 242 274 279 262 251 229 236 354 47 80 58 13 9 10 7 7 8 11 8 356 348 342 337 332 325 319 316 314 312 311 311 311 311 311 308 306 306 303 299 295 293 290 289 290 288 286 283 278 271 266 263 261 256 248 237 228 227 227 224 220 218 217 219 223
151 207 292 74 265 269 278 276 280 350 335 278 239 194 197 211 219 225 240 226 199 181 184 216 234 230 206 134 112 19 21 32 356 336 327 324 341 12 22 13 358 343 336 332 327 324 320 316 313 310 306 305 305 304 306 307 305 304 302 300 298 296 293 290 288 287 284 281 279 278 275 270 265 262 256 246 236 231 226 222 218 214 214 216 218 224
177 187 220 183 216 266 280 319 349 328 269 256 229 185 189 201 206 206 224 229 210 181 167 197 216 208 168 135 143 178 240 304 297 292 295 294 313 12 358 344 339 333 328 324 320 317 315 312 309 306 303 303 301 300 300 300 300 299 296 294 293 292 292 290 286 282 280 276 273 272 272 270 265 260 251 235 228 227 219 212 210 208 210 212 217 227
223 210 224 183 206 253 278 78 281 258 249 262 287 216 196 186 171 178 233 246 210 183 180 184 182 177 173 163 157 168 203 294 294 282 269 219 309 346 335 331 333 331 327 324 320 316 314 311 309 307 304 301 299 298 297 296 296 295 292 291 291 289 288 289 285 279 274 270 267 264 265 265 260 253 241 226 223 222 212 204 204 203 204 208 216 230
222 218 215 185 203 239 124 150 207 246 286 303 303 301 276 208 113 94 300 291 253 202 195 185 193 201 194 192 188 190 223 263 276 257 218 201 288 320 321 323 328 328 325 324 321 316 314 312 310 308 305 302 301 299 298 297 297 296 292 290 289 287 285 286 284 279 270 264 262 259 261 261 255 246 235 224 218 212 203 201 201 198 201 208 217 230
191 172 180 216 219 189 181 211 242 312 316 298 303 330 353 326 293 223 247 285 289 263 180 162 197 246 237 231 239 232 216 225 267 252 223 237 290 311 315 318 322 321 319 319 317 314 312 310 308 307 306 304 302 300 299 298 297 296 293 290 288 287 285 284 283 279 272 265 260 257 259 259 252 243 231 218 208 201 198 198 196 195 203 212 220 232
192 178 176 198 216 160 190 257 292 303 278 266 280 285 279 281 256 214 163 310 300 297 173 170 210 246 239 246 258 238 196 333 300 281 288 298 304 311 314 315 317 317 315 314 313 311 310 308 307 308 308 306 303 300 300 299 298 296 292 289 288 287 285 282 279 278 275 269 262 258 258 256 248 238 222 208 201 198 194 190 190 195 204 213 222 231
351 158 144 161 214 135 166 226 241 226 241 249 257 278 317 323 287 224 96 352 282 305 306 250 250 264 255 260 272 269 10 351 275 286 314 320 313 311 312 312 312 312 310 310 310 308 308 308 308 309 309 308 305 303 302 299 296 292 289 287 287 285 281 278 278 281 282 276 268 261 257 251 243 231 215 202 196 190 182 181 187 194 201 210 222 232
7 21 89 161 228 218 172 220 241 219 248 266 262 294 330 339 348 60 71 266 280 314 313 274 260 282 291 288 293 315 280 269 268 295 313 314 308 307 308 308 309 311 310 309 309 308 308 309 310 311 311 310 307 305 302 298 293 290 288 289 288 283 278 276 279 285 286 280 269 258 250 242 231 217 202 190 183 177 173 177 185 190 199 211 224 237
354 345 57 163 214 229 209 240 266 249 260 275 289 325 341 349 25 100 184 256 290 311 317 298 276 291 306 298 291 277 274 285 295 302 306 305 303 303 304 305 308 310 310 310 309 309 310 311 312 313 312 310 306 304 302 297 290 287 288 289 289 285 282 280 280 285 285 275 259 247 240 229 212 199 186 175 171 167 164 170 179 191 205 216 227 239
338 329 334 68 211 240 195 203 274 288 271 267 297 336 356 17 109 209 278 300 306 309 319 313 291 295 304 298 290 287 291 297 298 297 298 300 300 301 302 304 306 308 309 311 310 310 311 312 313 313 311 308 304 303 302 295 287 286 287 287 288 289 289 284 278 279 278 264 245 234 225 211 196 184 173 165 162 158 159 171 187 202 211 215 225 237
242 297 303 265 215 299 31 20 293 262 279 310 330 359 33 78 264 284 297 309 315 318 321 313 302 302 302 296 291 290 291 293 291 291 295 298 299 301 301 302 305 307 309 311 310 311 313 313 312 311 309 306 305 304 302 295 289 288 287 285 287 290 289 280 273 271 262 241 223 212 202 189 175 166 162 159 155 155 162 171 175 181 188 192 220 280
226 182 245 263 231 122 140 244 201 199 248 300 103 164 283 282 283 288 293 304 312 314 311 305 301 301 299 295 292 289 289 290 292 296 301 303 305 304 301 302 304 305 308 309 308 311 314 312 310 308 306 306 308 306 302 298 294 291 287 286 286 285 278 268 261 254 234 210 194 182 172 161 153 155 158 154 147 145 141 128 114 110 108 78 21 340
250 200 200 231 248 210 206 233 250 264 279 282 277 296 297 288 278 276 283 290 295 298 298 298 297 297 297 295 291 288 288 291 296 300 303 305 305 303 300 301 302 303 304 305 307 312 313 309 306 305 306 309 310 305 301 302 300 294 290 290 290 282 268 252 235 215 195 179 166 155 147 144 147 151 146 134 127 122 112 102 97 90 72 46 21 346
283 287 210 199 270 299 275 251 256 273 284 292 302 306 301 284 269 277 288 289 289 292 296 298 298 299 300 296 289 286 287 291 296 300 303 305 304 301 300 300 300 300 300 302 307 311 309 304 301 303 306 309 308 301 302 304 302 297 291 290 284 261 230 209 193 179 166 155 147 141 140 143 143 139 129 120 114 108 101 97 87 67 47 30 15 349
297 313 154 223 270 302 294 263 278 294 298 303 306 305 297 277 269 280 290 290 289 292 295 297 299 300 300 295 288 283 283 289 294 298 301 302 302 302 303 301 300 299 299 303 308 309 305 301 299 301 305 305 301 300 300 299 295 288 271 249 212 186 176 171 166 158 148 139 135 135 140 141 135 129 125 121 116 111 105 93 66 45 33 22 6 340
293 2 328 250 234 235 246 267 285 290 291 296 297 294 292 290 285 285 291 292 289 287 289 293 296 296 295 293 289 284 282 287 293 297 300 300 299 302 303 302 301 299 301 305 308 305 300 297 297 301 303 299 299 302 292 277 271 238 167 145 143 146 145 142 140 137 133 131 132 136 141 140 131 123 120 119 118 115 105 78 52 37 26 14 356 335
261 292 282 251 262 275 268 270 278 283 289 292 287 283 291 300 300 297 298 298 294 291 292 294 295 295 293 292 291 287 284 287 293 299 300 298 298 300 301 301 300 299 302 306 306 300 294 292 295 299 296 291 298 291 239 208 190 158 141 131 128 128 126 123 124 126 127 130 133 137 138 136 128 121 120 122 122 115 96 66 46 36 27 20 15 16
246 258 256 257 287 281 264 268 273 272 280 286 287 290 295 300 301 298 297 298 299 298 298 298 297 296 294 293 293 292 290 291 295 298 298 297 297 297 298 298 298 300 303 305 301 294 287 287 291 290 283 286 288 240 206 193 163 145 139 133 128 123 118 118 122 127 130 133 135 136 135 132 131 128 126 127 124 108 86 66 58 57 57 56 52 44
222 231 235 231 246 252 264 276 280 275 269 280 288 294 298 302 302 297 294 297 300 301 301 299 297 298 297 295 294 293 293 295 296 295 294 293 293 294 295 295 297 301 305 303 296 290 285 284 283 274 269 273 252 217 214 196 161 146 140 136 131 126 126 128 131 135 139 139 139 139 134 132 138 141 138 135 125 104 85 78 76 71 61 55 49 39
Height
1486 1489 1491 1492 1490 1488 1487 1488 1488 1488 1490 1490 1490 1491 1493 1495 1492 1487 1484 1482 1482 1483 1485 1486 1484 1484 1483 1480 1479 1479 1481 1483 1484 1485 1485 1486 1487 1487 1488 1488 1489 1490 1491 1495 1498 1500 1501 1502 1503 1504 1505 1507 1508 1509 1510 1511 1512 1513 1514 1515 1516 1517 1518 1519 1520 1520 1521 1522 1524 1524 1525 1525 1526 1527 1527 1527 1527 1527 1527 1527 1527 1526 1526 1526 1526 1526
1487 1491 1491 1488 1487 1486 1487 1489 1489 1489 1490 1490 1489 1490 1492 1495 1491 1486 1484 1482 1482 1483 1486 1487 1484 1483 1482 1480 1479 1477 1477 1480 1482 1483 1483 1484 1485 1486 1487 1487 1488 1490 1492 1495 1497 1499 1500 1501 1502 1503 1504 1505 1506 1507 1508 1510 1511 1512 1514 1515 1516 1516 1518 1519 1520 1521 1521 1522 1524 1524 1525 1525 1526 1527 1527 1528 1527 1527 1527 1527 1527 1526 1526 1525 1525 1525
1490 1490 1486 1484 1486 1488 1488 1489 1489 1488 1489 1489 1490 1491 1492 1494 1492 1487 1484 1483 1484 1482 1484 1485 1482 1481 1481 1480 1479 1477 1476 1477 1479 1481 1481 1482 1484 1486 1486 1486 1488 1490 1492 1494 1496 1497 1497 1499 1500 1501 1503 1504 1505 1506 1507 1509 1510 1511 1513 1514 1515 1516 1517 1519 1520 1521 1521 1522 1523 1525 1525 1526 1527 1527 1528 1528 1528 1527 1527 1527 1527 1526 1526 1525 1525 1525
1493 1486 1481 1483 1486 1487 1487 1489 1489 1488 1488 1489 1490 1491 1492 1493 1493 1490 1485 1484 1484 1484 1484 1484 1482 1481 1481 1479 1477 1477 1476 1476 1478 1479 1480 1481 1482 1483 1484 1484 1486 1487 1489 1491 1493 1494 1495 1497 1498 1499 1501 1502 1504 1505 1506 1507 1508 1510 1512 1514 1515 1516 1517 1518 1520 1521 1522 1522 1523 1525 1526 1526 1527 1528 1528 1528 1528 1528 1527 1527 1527 1526 1526 1525 1525 1525
1490 1482 1481 1484 1485 1485 1486 1488 1489 1488 1488 1490 1489 1489 1490 1489 1490 1490 1488 1485 1484 1485 1485 1484 1486 1485 1482 1481 1477 1476 1477 1476 1476 1478 1478 1479 1479 1480 1482 1483 1484 1485 1485 1487 1489 1491 1493 1494 1494 1496 1499 1501 1502 1503 1504 1505 1507 1509 1511 1513 1514 1515 1516 1518 1519 1520 1521 1522 1523 1524 1525 1526 1527 1527 1528 1528 1528 1528 1528 1527 1527 1526 1526 1526 1525 1525
1486 1481 1482 1483 1483 1485 1486 1487 1487 1487 1489 1491 1488 1485 1485 1485 1487 1489 1490 1489 1490 1491 1487 1487 1494 1492 1485 1484 1480 1477 1478 1477 1476 1477 1476 1476 1476 1478 1479 1480 1482 1483 1484 1485 1486 1488 1489 1490 1492 1494 1497 1499 1499 1500 1502 1504 1506 1509 1511 1512 1513 1515 1516 1517 1518 1519 1520 1521 1522 1523 1524 1525 1526 1527 1528 1528 1528 1528 1528 1528 1527 1527 1526 1526 1525 1525
1483 1480 1480 1481 1482 1485 1486 1487 1486 1486 1491 1492 1486 1482 1483 1485 1488 1490 1490 1491 1495 1496 1491 1490 1497 1497 1489 1483 1479 1479 1479 1476 1475 1476 1474 1473 1474 1475 1475 1475 1477 1479 1481 1483 1485 1487 1488 1488 1489 1492 1494 1495 1497 1498 1501 1504 1506 1508 1509 1511 1512 1513 1515 1516 1517 1518 1519 1520 1522 1523 1524 1525 1526 1527 1527 1528 1528 1528 1528 1528 1528 1527 1527 1526 1526 1525
1481 1479 1479 1481 1483 1485 1487 1486 1484 1485 1490 1490 1483 1481 1484 1485 1487 1489 1489 1491 1493 1493 1493 1492 1493 1498 1496 1485 1480 1482 1481 1477 1475 1474 1473 1472 1471 1471 1471 1471 1472 1474 1476 1479 1482 1484 1485 1486 1486 1488 1490 1492 1495 1498 1500 1503 1505 1507 1509 1510 1512 1513 1514 1515 1516 1517 1518 1519 1521 1522 1523 1524 1525 1526 1527 1528 1528 1528 1528 1528 1528 1528 1527 1527 1526 1526
1481 1479 1479 1480 1483 1486 1484 1480 1480 1482 1484 1483 1480 1482 1484 1483 1485 1487 1488 1491 1494 1495 1495 1494 1494 1500 1501 1489 1482 1485 1483 1479 1475 1473 1472 1470 1468 1467 1467 1467 1468 1470 1472 1474 1477 1479 1481 1483 1483 1484 1487 1490 1493 1496 1499 1501 1504 1506 1508 1510 1511 1512 1513 1514 1515 1516 1517 1518 1519 1521 1522 1523 1524 1525 1526 1526 1527 1527 1528 1528 1528 1528 1528 1527 1527 1527
1480 1478 1477 1479 1482 1482 1478 1476 1477 1479 1480 1479 1480 1483 1483 1485 1488 1489 1490 1491 1495 1499 1497 1493 1493 1500 1502 1491 1484 1485 1483 1479 1475 1472 1471 1469 1466 1464 1463 1463 1465 1466 1469 1471 1473 1476 1478 1479 1480 1482 1485 1488 1491 1494 1497 1500 1503 1505 1507 1508 1509 1511 1512 1513 1514 1515 1516 1517 1518 1519 1521 1522 1523 1524 1525 1525 1526 1526 1527 1528 1528 1528 1528 1528 1527 1527
1477 1476 1477 1477 1477 1476 1474 1475 1477 1476 1477 1478 1480 1482 1484 1487 1488 1491 1494 1492 1497 1503 1495 1490 1492 1497 1501 1493 1483 1482 1480 1477 1475 1472 1470 1466 1463 1460 1458 1459 1461 1463 1465 1468 1470 1473 1475 1477 1480 1482 1484 1487 1490 1494 1497 1499 1501 1503 1505 1506 1507 1509 1510 1512 1513 1513 1514 1515 1516 1518 1519 1521 1522 1523 1524 1524 1525 1525 1526 1527 1527 1528 1528 1528 1528 1527
1478 1476 1476 1473 1472 1473 1472 1474 1477 1478 1478 1479 1480 1483 1487 1491 1491 1493 1495 1495 1501 1503 1493 1491 1495 1497 1499 1491 1480 1479 1478 1476 1476 1473 1471 1468 1463 1459 1456 1457 1460 1462 1462 1464 1467 1470 1473 1476 1479 1481 1483 1486 1489 1492 1495 1496 1498 1500 1502 1503 1505 1507 1509 1510 1511 1512 1513 1514 1515 1516 1518 1519 1521 1522 1523 1523 1524 1525 1525 1526 1526 1527 1527 1528 1528 1527
1477 1474 1474 1472 1470 1471 1473 1476 1479 1479 1479 1480 1482 1486 1493 1499 1502 1501 1500 1502 1504 1499 1493 1496 1497 1496 1494 1485 1478 1479 1477 1475 1475 1474 1472 1469 1464 1461 1459 1459 1461 1464 1465 1464 1465 1467 1471 1474 1476 1478 1481 1484 1487 1489 1491 1493 1495 1497 1499 1501 1503 1504 1506 1508 1509 1511 1512 1513 1514 1515 1516 1518 1519 1521 1522 1523 1523 1524 1524 1525 1525 1526 1527 1527 1527 1527
1479 1476 1474 1473 1470 1469 1472 1477 1480 1481 1481 1481 1480 1485 1494 1503 1511 1510 1508 1511 1507 1496 1495 1499 1497 1494 1491 1485 1481 1479 1477 1476 1475 1475 1472 1467 1465 1464 1463 1462 1462 1464 1466 1467 1467 1468 1469 1471 1473 1476 1479 1481 1483 1485 1488 1490 1492 1495 1497 1499 1500 1502 1504 1506 1508 1509 1510 1512 1513 1514 1515 1516 1518 1519 1520 1521 1522 1523 1523 1524 1524 1525 1525 1526 1526 1526
1487 1484 1476 1473 1473 1471 1471 1474 1477 1479 1480 1481 1481 1483 1488 1494 1502 1505 1503 1503 1500 1495 1495 1496 1493 1490 1489 1487 1484 1479 1478 1478 1476 1474 1471 1466 1465 1464 1464 1465 1464 1464 1465 1467 1469 1471 1471 1471 1473 1475 1477 1479 1481 1483 1485 1487 1490 1492 1494 1496 1498 1500 1503 1504 1506 1507 1509 1510 1512 1513 1514 1515 1516 1517 1519 1520 1521 1521 1522 1522 1523 1523 1524 1524 1525 1525
1490 1485 1475 1473 1472 1471 1472 1473 1473 1475 1478 1483 1483 1483 1485 1483 1486 1495 1500 1499 1497 1497 1495 1493 1490 1488 1489 1487 1483 1480 1479 1477 1475 1472 1469 1468 1466 1464 1465 1467 1467 1467 1467 1467 1469 1471 1472 1473 1474 1474 1475 1477 1478 1480 1483 1485 1488 1489 1491 1493 1496 1498 1501 1502 1504 1505 1507 1509 1510 1511 1512 1513 1514 1515 1517 1518 1519 1519 1520 1521 1521 1522 1523 1523 1523 1523
1489 1484 1475 1474 1473 1471 1473 1473 1471 1473 1477 1482 1484 1482 1482 1481 1479 1489 1502 1504 1502 1500 1499 1497 1491 1486 1489 1487 1481 1479 1478 1475 1474 1471 1470 1471 1467 1465 1468 1470 1469 1470 1469 1469 1470 1470 1472 1474 1475 1475 1476 1477 1478 1479 1481 1483 1485 1486 1488 1491 1494 1496 1499 1500 1502 1503 1505 1507 1508 1509 1511 1512 1512 1513 1514 1516 1517 1517 1518 1519 1520 1520 1521 1521 1522 1522
1485 1483 1476 1474 1474 1471 1472 1472 1472 1472 1473 1479 1483 1481 1480 1482 1481 1485 1495 1502 1506 1506 1501 1499 1494 1487 1489 1489 1483 1480 1479 1478 1477 1473 1472 1472 1469 1469 1472 1472 1472 1472 1471 1472 1471 1471 1472 1473 1475 1476 1476 1478 1479 1480 1481 1483 1484 1486 1487 1489 1491 1494 1496 1498 1500 1501 1503 1505 1506 1507 1509 1510 1511 1512 1513 1514 1515 1516 1517 1517 1518 1519 1519 1520 1520 1521
1482 1483 1478 1474 1476 1474 1471 1473 1475 1474 1474 1476 1479 1479 1482 1486 1487 1488 1494 1499 1504 1509 1504 1498 1499 1495 1487 1485 1483 1482 1481 1480 1479 1475 1474 1474 1473 1473 1474 1474 1474 1473 1472 1472 1471 1470 1471 1473 1474 1475 1476 1477 1478 1479 1481 1483 1485 1486 1487 1488 1490 1492 1494 1496 1498 1500 1501 1503 1504 1506 1507 1508 1510 1511 1512 1512 1513 1514 1514 1515 1516 1516 1517 1518 1518 1519
1483 1486 1482 1476 1476 1476 1473 1474 1479 1479 1477 1476 1477 1480 1483 1487 1490 1492 1496 1496 1497 1504 1505 1499 1498 1493 1482 1480 1480 1481 1482 1481 1478 1477 1476 1477 1477 1476 1476 1476 1475 1474 1473 1473 1471 1471 1471 1472 1474 1475 1476 1477 1478 1479 1480 1482 1483 1484 1487 1488 1489 1491 1493 1495 1497 1498 1499 1500 1502 1504 1505 1507 1508 1509 1510 1511 1511 1512 1512 1513 1514 1514 1515 1516 1516 1517
1483 1487 1487 1480 1477 1478 1478 1479 1482 1482 1481 1480 1480 1483 1484 1487 1492 1492 1494 1496 1494 1498 1503 1501 1496 1488 1479 1479 1479 1479 1481 1480 1478 1477 1477 1478 1478 1478 1478 1477 1476 1475 1475 1474 1473 1472 1472 1473 1474 1475 1476 1477 1478 1479 1480 1481 1481 1483 1485 1487 1488 1490 1491 1493 1494 1496 1497 1498 1500 1501 1503 1504 1506 1507 1508 1509 1509 1509 1509 1510 1511 1511 1512 1513 1513 1514
1483 1486 1487 1484 1480 1479 1481 1481 1480 1480 1482 1483 1482 1484 1485 1488 1491 1493 1495 1498 1495 1495 1498 1500 1496 1487 1480 1481 1480 1479 1481 1480 1478 1478 1477 1477 1478 1478 1479 1478 1477 1476 1475 1476 1476 1475 1475 1475 1476 1477 1477 1477 1478 1479 1479 1480 1481 1482 1484 1485 1486 1487 1489 1490 1492 1493 1495 1496 1497 1499 1500 1502 1503 1504 1505 1506 1506 1506 1507 1507 1508 1509 1509 1510 1511 1511
1483 1485 1486 1486 1483 1482 1482 1481 1480 1480 1480 1482 1483 1485 1487 1489 1491 1493 1496 1496 1496 1497 1498 1500 1497 1488 1482 1483 1482 1481 1481 1480 1479 1478 1477 1477 1477 1477 1478 1478 1478 1477 1477 1477 1477 1477 1478 1477 1478 1478 1478 1478 1478 1478 1479 1479 1480 1481 1482 1483 1484 1485 1486 1488 1489 1491 1492 1494 1495 1496 1498 1499 1501 1501 1502 1503 1503 1503 1504 1504 1505 1506 1507 1507 1508 1509
1483 1486 1487 1487 1486 1484 1481 1479 1480 1481 1480 1482 1485 1486 1487 1489 1489 1491 1493 1495 1495 1495 1496 1499 1498 1490 1484 1485 1484 1483 1483 1481 1480 1479 1478 1478 1478 1477 1477 1477 1477 1478 1477 1477 1477 1478 1478 1477 1478 1479 1479 1479 1479 1478 1478 1478 1479 1480 1480 1482 1482 1482 1484 1486 1487 1488 1489 1491 1492 1494 1495 1496 1497 1498 1499 1499 1499 1500 1501 1502 1503 1503 1504 1505 1506 1506
1484 1487 1489 1491 1492 1490 1486 1484 1482 1481 1481 1484 1487 1488 1488 1488 1489 1492 1494 1497 1496 1494 1493 1493 1493 1489 1486 1486 1485 1483 1482 1481 1481 1481 1479 1479 1478 1477 1477 1477 1477 1477 1477 1477 1476 1477 1477 1477 1478 1479 1479 1480 1479 1478 1478 1478 1478 1479 1479 1480 1480 1481 1483 1484 1485 1485 1486 1487 1489 1491 1492 1493 1494 1495 1496 1497 1497 1498 1499 1500 1500 1501 1501 1502 1503 1504
1486 1489 1489 1491 1495 1497 1494 1491 1487 1483 1483 1487 1489 1489 1488 1488 1489 1490 1493 1496 1497 1497 1495 1491 1488 1488 1487 1486 1485 1483 1482 1482 1481 1481 1480 1479 1478 1477 1477 1477 1477 1477 1476 1476 1476 1476 1477 1477 1478 1479 1480 1480 1479 1479 1479 1478 1478 1478 1478 1479 1479 1479 1481 1482 1482 1483 1483 1484 1485 1487 1488 1489 1490 1491 1492 1494 1495 1496 1497 1498 1498 1499 1499 1500 1501 1503
1487 1490 1489 1489 1492 1493 1490 1487 1486 1485 1484 1485 1487 1489 1489 1489 1489 1490 1493 1496 1495 1495 1494 1489 1487 1486 1485 1486 1486 1483 1482 1482 1482 1481 1480 1479 1478 1478 1477 1477 1477 1476 1476 1476 1476 1476 1477 1477 1477 1478 1479 1479 1479 1479 1479 1478 1477 1477 1477 1477 1478 1479 1479 1480 1481 1481 1481 1481 1482 1483 1484 1485 1486 1487 1489 1491 1492 1494 1496 1496 1496 1497 1498 1499 1500 1501
1488 1489 1489 1489 1488 1487 1487 1485 1485 1487 1485 1483 1485 1488 1489 1488 1487 1489 1492 1492 1493 1495 1493 1488 1487 1486 1483 1484 1484 1481 1480 1481 1481 1480 1479 1479 1479 1478 1478 1477 1476 1476 1476 1476 1476 1476 1476 1477 1477 1477 1478 1479 1479 1479 1478 1478 1477 1476 1476 1476 1476 1477 1477 1478 1478 1478 1479 1479 1479 1480 1481 1482 1483 1483 1485 1487 1488 1491 1493 1494 1494 1495 1496 1497 1498 1500
1491 1490 1490 1490 1486 1485 1486 1486 1485 1487 1486 1484 1484 1486 1488 1488 1487 1488 1489 1488 1490 1492 1488 1484 1486 1484 1482 1483 1482 1479 1479 1479 1479 1478 1477 1477 1477 1477 1477 1476 1476 1475 1476 1476 1476 1476 1476 1476 1477 1477 1478 1478 1478 1478 1477 1476 1475 1475 1475 1474 1474 1474 1475 1475 1475 1476 1476 1476 1477 1478 1479 1480 1480 1480 1481 1482 1482 1485 1488 1491 1492 1493 1494 1495 1496 1497
1491 1491 1492 1492 1488 1485 1484 1484 1485 1486 1485 1484 1484 1485 1487 1488 1486 1486 1486 1486 1487 1486 1481 1482 1486 1484 1481 1483 1481 1478 1479 1479 1478 1477 1476 1476 1476 1476 1476 1475 1475 1476 1476 1476 1476 1476 1476 1476 1476 1477 1477 1476 1476 1475 1475 1474 1474 1473 1473 1473 1473 1472 1472 1472 1472 1473 1473 1473 1474 1474 1475 1477 1477 1477 1477 1476 1475 1479 1483 1488 1490 1491 1492 1492 1494 1495
1491 1492 1493 1491 1489 1487 1484 1483 1484 1486 1486 1486 1485 1485 1486 1486 1486 1486 1485 1486 1486 1484 1481 1483 1486 1484 1481 1481 1480 1478 1478 1477 1477 1477 1476 1476 1476 1476 1476 1476 1476 1476 1475 1475 1475 1475 1475 1475 1475 1475 1474 1474 1473 1473 1472 1471 1471 1471 1471 1471 1471 1471 1470 1470 1469 1469 1470 1470 1470 1471 1472 1473 1473 1473 1473 1473 1474 1479 1484 1487 1488 1490 1490 1490 1492 1493
1492 1495 1493 1492 1493 1490 1484 1483 1483 1483 1484 1484 1484 1485 1484 1482 1482 1482 1482 1482 1481 1480 1480 1482 1483 1480 1479 1479 1479 1478 1477 1477 1477 1478 1477 1476 1477 1477 1477 1476 1476 1476 1475 1474 1474 1473 1473 1473 1472 1472 1471 1471 1470 1470 1469 1468 1468 1468 1468 1468 1468 1468 1468 1467 1467 1466 1466 1466 1467 1467 1468 1469 1469 1468 1469 1471 1474 1478 1482 1485 1486 1488 1488 1489 1490 1491
1492 1493 1492 1494 1496 1490 1486 1486 1485 1484 1485 1482 1478 1479 1478 1477 1478 1478 1478 1478 1477 1476 1477 1478 1477 1475 1477 1479 1478 1478 1478 1477 1477 1477 1477 1477 1477 1477 1477 1477 1476 1476 1475 1474 1473 1472 1472 1471 1471 1470 1469 1469 1468 1467 1466 1465 1464 1464 1464 1463 1463 1464 1464 1464 1463 1463 1463 1463 1463 1464 1464 1465 1465 1464 1465 1468 1471 1474 1478 1481 1483 1485 1486 1486 1487 1489
1491 1491 1492 1493 1493 1489 1487 1487 1488 1490 1487 1478 1471 1471 1472 1472 1474 1475 1474 1473 1473 1474 1475 1474 1473 1475 1477 1478 1477 1478 1478 1477 1477 1477 1477 1477 1476 1477 1476 1476 1475 1475 1474 1473 1473 1472 1471 1470 1469 1468 1467 1467 1465 1464 1463 1463 1462 1461 1460 1459 1459 1458 1459 1459 1459 1459 1459 1459 1459 1460 1460 1460 1461 1461 1462 1465 1468 1470 1474 1477 1480 1481 1482 1483 1484 1486
1489 1490 1492 1491 1491 1491 1488 1489 1494 1494 1482 1472 1471 1471 1471 1470 1471 1472 1471 1469 1472 1474 1473 1472 1473 1475 1476 1477 1477 1478 1478 1477 1477 1476 1475 1475 1475 1475 1475 1474 1474 1473 1473 1472 1471 1470 1469 1468 1467 1466 1465 1464 1463 1461 1460 1459 1458 1457 1456 1455 1455 1454 1454 1454 1454 1454 1455 1455 1455 1456 1456 1456 1457 1458 1459 1462 1464 1467 1470 1473 1475 1476 1477 1478 1480 1483
1488 1490 1491 1490 1491 1492 1491 1492 1494 1486 1474 1471 1471 1471 1472 1472 1472 1473 1472 1470 1473 1474 1472 1471 1473 1475 1476 1477 1477 1478 1478 1477 1476 1474 1474 1474 1474 1474 1474 1473 1472 1471 1471 1470 1469 1468 1468 1466 1465 1464 1462 1461 1460 1459 1457 1456 1455 1453 1452 1451 1451 1450 1450 1449 1449 1449 1450 1450 1451 1452 1453 1453 1453 1453 1455 1457 1460 1462 1466 1469 1471 1471 1472 1475 1477 1479
1486 1488 1490 1490 1490 1489 1489 1490 1486 1480 1476 1474 1473 1474 1476 1476 1475 1476 1474 1473 1474 1475 1474 1474 1475 1475 1475 1475 1476 1477 1477 1477 1475 1474 1473 1473 1472 1472 1471 1470 1470 1469 1468 1467 1467 1466 1465 1464 1463 1462 1460 1458 1457 1456 1454 1453 1451 1449 1447 1446 1446 1446 1445 1445 1444 1444 1444 1445 1447 1448 1449 1449 1449 1450 1452 1454 1456 1459 1461 1464 1467 1468 1470 1472 1474 1476
1483 1484 1485 1487 1488 1487 1488 1490 1488 1485 1482 1479 1477 1479 1479 1477 1477 1476 1474 1475 1476 1476 1475 1476 1475 1475 1475 1474 1474 1475 1475 1475 1474 1472 1471 1471 1471 1470 1469 1468 1467 1466 1465 1465 1464 1463 1462 1461 1460 1459 1457 1455 1453 1452 1451 1449 1447 1445 1443 1442 1441 1441 1441 1440 1439 1439 1440 1441 1442 1444 1445 1446 1446 1448 1450 1451 1452 1454 1457 1461 1464 1466 1468 1470 1472 1474
1481 1483 1483 1485 1487 1487 1487 1489 1488 1485 1482 1480 1480 1479 1476 1476 1475 1471 1472 1477 1478 1476 1477 1476 1475 1474 1473 1473 1473 1473 1473 1474 1472 1470 1470 1469 1468 1467 1466 1465 1464 1464 1463 1462 1461 1460 1459 1458 1457 1455 1454 1451 1449 1448 1447 1445 1443 1441 1439 1438 1438 1437 1436 1435 1435 1435 1436 1437 1438 1440 1442 1442 1443 1445 1446 1447 1448 1450 1453 1458 1462 1464 1466 1469 1471 1471
1481 1483 1485 1486 1487 1486 1486 1487 1485 1481 1480 1480 1479 1477 1476 1474 1471 1471 1478 1481 1478 1476 1477 1476 1474 1473 1472 1471 1471 1471 1471 1471 1470 1468 1468 1468 1466 1466 1464 1463 1462 1461 1460 1459 1458 1457 1456 1454 1453 1451 1449 1447 1445 1444 1443 1441 1439 1436 1435 1434 1434 1432 1431 1431 1431 1432 1432 1433 1434 1437 1439 1440 1442 1443 1444 1445 1447 1448 1451 1455 1460 1463 1465 1467 1468 1469
1485 1485 1485 1486 1486 1486 1487 1487 1484 1480 1480 1479 1477 1476 1475 1473 1473 1478 1482 1480 1476 1476 1476 1475 1473 1472 1471 1470 1470 1469 1469 1468 1467 1466 1467 1466 1464 1463 1462 1461 1459 1458 1457 1456 1455 1454 1452 1450 1449 1447 1445 1443 1441 1440 1438 1437 1434 1432 1431 1430 1429 1427 1427 1427 1428 1428 1428 1429 1431 1433 1436 1438 1440 1442 1443 1445 1446 1448 1451 1455 1459 1462 1463 1465 1466 1467
1489 1488 1487 1486 1486 1486 1487 1486 1484 1482 1480 1478 1477 1476 1474 1475 1479 1481 1478 1475 1475 1475 1473 1473 1472 1471 1470 1470 1468 1467 1466 1465 1464 1464 1464 1464 1463 1461 1459 1458 1457 1455 1454 1453 1452 1451 1449 1446 1444 1442 1440 1439 1438 1436 1434 1433 1430 1428 1427 1425 1423 1422 1423 1423 1423 1423 1424 1425 1427 1430 1433 1436 1438 1441 1445 1447 1446 1447 1451 1455 1458 1460 1462 1463 1464 1465
1490 1490 1490 1488 1486 1487 1487 1486 1486 1484 1480 1477 1477 1477 1476 1478 1480 1478 1474 1474 1474 1473 1472 1472 1471 1470 1470 1468 1467 1466 1464 1463 1463 1461 1461 1461 1460 1459 1457 1456 1454 1452 1451 1449 1448 1447 1445 1442 1439 1437 1436 1435 1434 1432 1431 1429 1426 1424 1423 1420 1417 1418 1418 1418 1418 1419 1420 1422 1424 1427 1431 1435 1438 1442 1445 1445 1445 1447 1452 1455 1458 1460 1461 1461 1462 1463
1489 1490 1492 1490 1487 1488 1489 1486 1482 1479 1477 1476 1477 1478 1478 1477 1476 1475 1474 1474 1473 1472 1472 1471 1469 1469 1469 1467 1465 1464 1462 1461 1460 1459 1458 1457 1457 1456 1455 1453 1451 1450 1448 1446 1445 1443 1441 1438 1435 1433 1432 1431 1430 1429 1427 1425 1422 1420 1417 1414 1412 1412 1412 1412 1413 1415 1417 1420 1423 1426 1430 1434 1439 1443 1445 1444 1445 1448 1452 1455 1457 1459 1460 1460 1460 1461
1488 1488 1490 1489 1486 1485 1485 1481 1477 1476 1476 1476 1476 1477 1476 1475 1474 1474 1473 1472 1472 1471 1471 1470 1468 1467 1466 1465 1463 1462 1460 1459 1458 1457 1456 1454 1452 1452 1451 1450 1448 1447 1445 1443 1441 1439 1438 1435 1432 1430 1429 1428 1427 1426 1424 1421 1418 1415 1412 1409 1407 1407 1407 1408 1410 1412 1415 1418 1422 1427 1431 1435 1440 1445 1446 1446 1446 1448 1451 1454 1457 1458 1458 1458 1459 1459
1487 1486 1488 1487 1484 1482 1479 1476 1475 1475 1475 1475 1475 1475 1474 1473 1472 1472 1471 1470 1469 1469 1468 1467 1466 1464 1463 1463 1461 1459 1458 1457 1456 1454 1453 1451 1449 1448 1448 1446 1445 1444 1442 1440 1438 1436 1434 1432 1430 1428 1426 1425 1424 1423 1421 1418 1415 1412 1408 1405 1404 1404 1405 1406 1407 1409 1413 1418 1423 1428 1434 1438 1442 1445 1446 1447 1448 1449 1451 1454 1456 1456 1456 1456 1457 1457
1487 1486 1487 1486 1485 1484 1480 1475 1474 1474 1473 1473 1473 1472 1472 1472 1471 1470 1469 1468 1466 1466 1465 1464 1463 1462 1461 1460 1458 1457 1456 1455 1453 1451 1449 1448 1446 1445 1444 1443 1442 1440 1439 1437 1435 1434 1431 1429 1428 1426 1424 1423 1422 1421 1419 1416 1413 1411 1408 1406 1405 1405 1405 1405 1406 1410 1414 1419 1424 1430 1437 1441 1443 1445 1446 1447 1449 1450 1451 1453 1454 1454 1455 1455 1456 1456
1487 1487 1486 1484 1483 1482 1479 1475 1473 1472 1471 1471 1471 1470 1469 1470 1469 1468 1467 1466 1464 1464 1463 1462 1461 1460 1458 1457 1456 1454 1452 1451 1450 1448 1446 1445 1443 1442 1441 1439 1438 1436 1435 1434 1432 1431 1428 1427 1425 1423 1422 1421 1420 1419 1417 1415 1413 1412 1411 1409 1408 1408 1408 1409 1411 1415 1420 1423 1427 1433 1439 1442 1444 1445 1446 1448 1449 1450 1451 1451 1452 1453 1453 1454 1455 1456
1486 1486 1484 1482 1481 1480 1477 1474 1472 1471 1469 1468 1468 1467 1467 1467 1466 1465 1464 1463 1462 1461 1460 1459 1458 1457 1455 1453 1452 1450 1449 1447 1446 1445 1443 1441 1440 1438 1437 1435 1434 1432 1431 1430 1428 1427 1425 1424 1422 1421 1420 1420 1419 1418 1417 1415 1415 1415 1414 1414 1414 1413 1413 1415 1418 1421 1425 1428 1431 1436 1440 1442 1444 1445 1446 1447 1448 1449 1450 1450 1451 1452 1453 1454 1455 1456
1484 1484 1481 1481 1482 1480 1475 1471 1470 1470 1468 1464 1464 1464 1464 1464 1463 1462 1460 1459 1458 1457 1456 1455 1453 1452 1451 1450 1448 1447 1445 1443 1442 1442 1440 1437 1436 1435 1433 1431 1430 1428 1427 1426 1424 1423 1422 1421 1419 1418 1418 1418 1417 1417 1416 1416 1417 1417 1417 1417 1418 1418 1418 1420 1423 1425 1429 1432 1435 1438 1440 1441 1443 1445 1446 1447 1448 1449 1449 1450 1451 1452 1453 1454 1455 1455
1481 1479 1478 1479 1478 1475 1470 1467 1467 1468 1465 1461 1460 1460 1461 1461 1460 1458 1457 1456 1454 1453 1452 1451 1449 1447 1446 1446 1445 1444 1442 1439 1438 1437 1435 1433 1432 1430 1429 1427 1426 1424 1423 1422 1420 1419 1418 1417 1416 1416 1416 1416 1416 1415 1415 1416 1418 1419 1419 1420 1421 1421 1423 1424 1426 1429 1432 1435 1437 1439 1440 1442 1443 1445 1446 1447 1448 1448 1449 1450 1452 1453 1454 1454 1454 1454